Showing default

DROID.002, 63223

Orbit data source: Space-Track

DROID.002, 63223 is a payload satellite owned by Turion Space (US) in SSO that was launched on Sat, 15 Mar 2025 UTC via an FALCON 9 launch vehicle from the Air Force Western Test Range (AFWTR). Payload-class satellites include a variety of spacecraft equipped with specific instruments for various scientific and technological missions. These include communications satellites like Starlink; space stations such as the ISS; scientific satellites like the Hubble; Earth observation satellites from companies like Planet Labs, Umbra, and HawkEye 360; GPS; miniature CubeSats for education and research; and military/defense satellites.

Loading next visibility...
Identifier
63223, 2025-052P
Orbit
SSO
Last TLE update
8 hours ago
Origin
Manufacturer
Turion Space
Mission
Operational Commercial Technology
Bus & Motor
DROID, Unknown motor
Mass
90 kg wet, 90 kg dry
Launch date (UTC)
2025-03-15 (4 months ago)
Launch vehicle
FALCON 9
Launch site
Air Force Western Test Range (AFWTR)
Object type
Payload
Rocket body
Debris
Shape & HBR
Box + 2 Pan, 2 m
Radar Cross Section
0.892 m², Large (>1 m²)

Expand to show TLE details & history

TLE from 8 hours ago
0 DROID.002
1 63223U 25052P   25187.62158918  .00004285  00000-0  20852-3 0  9992
2 63223  97.4318  81.0254 0002665 263.6808  96.4123 15.18914161 17349
Epoch: 2025-07-06T14:55Z
TLE epoch observation values (Epoch: 2025-07-06T14:55:05.305Z)
Latitude
-0°
Longitude
-67.58935°
Altitude
512.415 km
Speed
7.607 km/s
True Right ascension
05h 24m 06s
True Declination
0° 00' 00"
Sunlit
Object was in daylight at epoch
Visualization orbit readout
Latitude
-47.36568°
Longitude
-59.17377°
Altitude
526.32 km
Speed
7.599 km/s
Apparent Right ascension
02h 10m 02s
Apparent Declination
-58° 59' 28"
Sunlit
Object is in daylight
Visualization observer readout
Local Sidereal Time
10:36:59
Azimuth
221.93° SW
Elevation
-51.843°
Doppler factor
1
Orbital elements
Apogee altitude
507.924 km
Perigee altitude
504.255 km
Semi-major axis
6,884.226 km
Eccentricity
0.00027
Inclination
97.4318°
RAAN
81.0254°
Arg. of periapsis
263.6808°
True anomaly
Unknown
Mean anomaly
96.4123°
Eccentric anomaly
Unknown
Mean motion
3.7998 °/min
Orbital period
94.74 mins
BSTAR
0.00020852
Loading maneuver chart data...
Loading SW <> Apogee altitude chart data...
Loading historical data...
Loading historical data...
Loading historical data...
Loading historical data...
Loading historical data...
Loading historical data...
Loading historical data...

DROID.002 Visibility forecast

Observer location: undefined°, undefined°

Span
Click to sort rows by Start time (UTC) header in descending order
Start Az.
Max El. time (UTC)
Max El. Az.
Max El.
End time (UTC)
End Az.
6 mins2025-07-07 05:42:49.953Z15.686° NNE2025-07-07 05:45:49.953Z130.795° SE44.268°2025-07-07 05:48:49.953Z188.27° SSW
5 mins2025-07-07 16:21:49.953Z122.577° SE2025-07-07 16:23:49.953Z77.305° E26.249°2025-07-07 16:26:49.953Z13.681° NNE
|